Regional Weather Roundup
Issued by NWS Binghamton, NY

Home | Current Version | Previous Version | Text Only | Print | Product List | Glossary On
Versions: 1 2 3 4 5 6 7 8 9 10 11 12 13 14 15 16 17 18 19 20 21 22 23 24 25 26 27 28 29 30 31 32 33 34 35 36 37 38 39 40 41 42 43 44 45 46 47 48 49 50
000
ASUS41 KBGM 130210
RWRBGM

REGIONAL WEATHER ROUNDUP
NATIONAL WEATHER SERVICE BINGHAMTON NY
900 PM EST FRI FEB 12 2016

Note: "fair" indicates few or no clouds below 12,000 feet with no
significant weather and/or obstructions to visibility.

* = Station(s) that does not report precipitation, such as rain,
snow, etc, also no thunder or fog.

!NYZ009-015>018-022>025-036-037-044>046-055>057-062-130300
...CENTRAL NEW YORK...

CITY           SKY/WX    TMP DP  RH WIND       PRES   REMARKS
BINGHAMTON     CLOUDY    13   8  81 SW7       29.79F WCI   3
CORTLAND       FAIR      18  10  73 SW9       29.82F WCI   6
DANSVILLE      LGT SNOW  19  13  77 CALM      29.85F
ELMIRA         PTCLDY    17   8  67 W7        29.85F WCI   8
ITHACA         MOCLDY    16   8  71 S10       29.84S WCI   4
HORNELL        CLOUDY    16   9  73 W3        29.85S
MONTICELLO     CLOUDY    14  12  92 SW5       29.85S WCI   6
NORWICH        PTCLDY    14   9  79 S8        29.84F WCI   3
PENN YAN       CLEAR     18   8  65 SW10      29.83S WCI   6
ROME           PTCLDY    15   3  59 S5        29.86F WCI   8
SIDNEY         LGT SNOW  18  14  86 SW3       29.85F
SYRACUSE       PTCLDY    18   7  62 S14       29.83F WCI   4
$$

!PAZ038>040-043-044-047-048-072-130300
...NORTHEAST PENNSYLVANIA...

CITY           SKY/WX    TMP DP  RH WIND       PRES   REMARKS
HAZLETON       LGT SNOW  16  10  79 MISG      29.87F
SCRANTON       LGT SNOW  17   8  67 SW10      29.88F WCI   5
$$
&&
KEY
WCI = WIND CHILL INDEX
VSB = VISIBILITY
HX  = HEAT INDEX
$$



USA.gov is the U.S. government's official web portal to all federal, state and local government web resources and services.